Qianfan 05-18

operational
NORAD ID: 63176 Int'l Des: 2025-046 Owner: YUANX Country: CN Constellation: qianfan
LEOCIRCULARPOLAR

About Qianfan 05-18

Description loading...

Live Position

Loading 3D Globe...

Upcoming Passes

Altitude History

Altitude vs Time

uPlot chart will show altitude changes over time

Two-Line Element Set

1 63176U 25046T 25298.31902068 .00000028 00000-0 25339-4 0 9991
2 63176 88.9776 325.0249 0011434 262.1428 97.8425 13.50973945 40884
Epoch: Oct 25, 2025 • Age: 6 hours

Current Status

Altitude 1082.6 km
Velocity 7.31 km/s
Sub-Earth Point 45.84°N, 93.65°E
Launch Date Mar 11, 2025
Age 0.6 years
Type internet

Technical Details

Classification Payload
Mass 267.00 kg
Dry Mass 267.00 kg
Total Mass 267.00 kg
Length 0.30 m
Diameter 3.00 m
Span 10.00 m
Shape Box+pan
Manufacturer GESIH
Bus Type Qianfan
Phase Status In Orbit
Owner/State YUANX/CN

Large Constellations

Loading constellations...